| time (UTC) | temp C | wind direction | speed KPH | gust KPH | rain 1hr cm | rain 24hr cm | rain mn cm | humidity % | barometer mb |
| 20260507113520 | -1 | 292 | 0.0 | 0.0 | 0.00 | 0.00 | 0.00 | 90 | 1014.6 |
| 20260507113016 | -1 | 293 | 0.0 | 0.0 | 0.00 | 0.00 | 0.00 | 90 | 1014.6 |
| 20260507112520 | -1 | 293 | 0.0 | 1.6 | 0.00 | 0.00 | 0.00 | 91 | 1014.6 |
| 20260507112015 | -1 | 293 | 0.0 | 1.6 | 0.00 | 0.00 | 0.00 | 91 | 1014.6 |
| 20260507111514 | -2 | 293 | 0.0 | 1.6 | 0.00 | 0.00 | 0.00 | 90 | 1014.5 |
| 20260507111018 | -2 | 293 | 0.0 | 1.6 | 0.00 | 0.00 | 0.00 | 89 | 1014.5 |
| 20260507110513 | -2 | 292 | 0.0 | 1.6 | 0.00 | 0.00 | 0.00 | 89 | 1014.6 |
| 20260507110113 | -2 | 284 | 0.0 | 0.0 | 0.00 | 0.00 | 0.00 | 88 | 1014.6 |
| 20260507105511 | -2 | 277 | 0.0 | 0.0 | 0.00 | 0.00 | 0.00 | 88 | 1014.6 |
| 20260507105013 | -2 | 277 | 0.0 | 0.0 | 0.00 | 0.00 | 0.00 | 86 | 1014.5 |
| 20260507104534 | -2 | 277 | 0.0 | 0.0 | 0.00 | 0.00 | 0.00 | 86 | 1014.5 |
| 20260507104009 | -1 | 277 | 0.0 | 0.0 | 0.00 | 0.00 | 0.00 | 86 | 1014.5 |
| 20260507103508 | -1 | 277 | 0.0 | 0.0 | 0.00 | 0.00 | 0.00 | 86 | 1014.6 |
| 20260507103009 | -1 | 277 | 0.0 | 0.0 | 0.00 | 0.00 | 0.00 | 86 | 1014.7 |
| 20260507102506 | -1 | 277 | 0.0 | 0.0 | 0.00 | 0.00 | 0.00 | 85 | 1014.7 |
| 20260507102007 | -1 | 266 | 0.0 | 0.0 | 0.00 | 0.00 | 0.00 | 83 | 1014.6 |
| 20260507101512 | -1 | 266 | 0.0 | 0.0 | 0.00 | 0.00 | 0.00 | 83 | 1014.6 |
| 20260507101008 | -1 | 266 | 0.0 | 0.0 | 0.00 | 0.00 | 0.00 | 82 | 1014.6 |
| 20260507100503 | -1 | 266 | 0.0 | 0.0 | 0.00 | 0.00 | 0.00 | 82 | 1014.6 |
| 20260507100006 | -1 | 266 | 0.0 | 0.0 | 0.00 | 0.00 | 0.00 | 82 | 1014.6 |
| 20260507095503 | -1 | 265 | 0.0 | 1.6 | 0.00 | 0.00 | 0.00 | 82 | 1014.7 |
| 20260507095003 | -1 | 257 | 0.0 | 1.6 | 0.00 | 0.00 | 0.00 | 82 | 1014.7 |
| 20260507094502 | -1 | 253 | 0.0 | 1.6 | 0.00 | 0.00 | 0.00 | 81 | 1014.7 |
| 20260507094001 | -1 | 259 | 0.0 | 1.6 | 0.00 | 0.00 | 0.00 | 81 | 1014.7 |
| 20260507093503 | -1 | 257 | 0.0 | 1.6 | 0.00 | 0.00 | 0.00 | 81 | 1014.8 |
| 20260507093100 | -1 | 249 | 0.0 | 1.6 | 0.00 | 0.00 | 0.00 | 81 | 1014.8 |
| 20260507092600 | -1 | 242 | 0.0 | 1.6 | 0.00 | 0.00 | 0.00 | 81 | 1014.7 |
| 20260507092102 | -1 | 242 | 1.6 | 1.6 | 0.00 | 0.00 | 0.00 | 81 | 1014.7 |
| 20260507091558 | 0 | 242 | 0.0 | 1.6 | 0.00 | 0.00 | 0.00 | 82 | 1014.8 |
| 20260507091056 | 0 | 249 | 0.0 | 1.6 | 0.00 | 0.00 | 0.00 | 83 | 1014.8 |
| 20260507090554 | 0 | 265 | 0.0 | 1.6 | 0.00 | 0.00 | 0.00 | 83 | 1014.8 |
| 20260507090059 | 0 | 267 | 0.0 | 3.2 | 0.00 | 0.00 | 0.00 | 82 | 1014.8 |
| 20260507085553 | 0 | 280 | 0.0 | 3.2 | 0.00 | 0.00 | 0.00 | 82 | 1014.9 |
| 20260507085053 | 0 | 276 | 0.0 | 3.2 | 0.00 | 0.00 | 0.00 | 82 | 1014.9 |
| 20260507084559 | 0 | 277 | 0.0 | 3.2 | 0.00 | 0.00 | 0.00 | 82 | 1014.9 |
| 20260507084054 | 0 | 278 | 0.0 | 3.2 | 0.00 | 0.00 | 0.00 | 81 | 1014.9 |
| 20260507083552 | 0 | 277 | 0.0 | 3.2 | 0.00 | 0.00 | 0.00 | 81 | 1014.9 |
| 20260507083052 | 0 | 285 | 1.6 | 3.2 | 0.00 | 0.00 | 0.00 | 80 | 1014.9 |
| 20260507082551 | 0 | 288 | 1.6 | 3.2 | 0.00 | 0.00 | 0.00 | 80 | 1014.8 |
| 20260507082050 | 0 | 285 | 0.0 | 3.2 | 0.00 | 0.00 | 0.00 | 80 | 1014.8 |
| 20260507081552 | 0 | 281 | 1.6 | 3.2 | 0.00 | 0.00 | 0.00 | 81 | 1014.8 |
| 20260507081050 | 0 | 285 | 1.6 | 3.2 | 0.00 | 0.00 | 0.00 | 81 | 1014.8 |
| 20260507080550 | 0 | 287 | 1.6 | 4.8 | 0.00 | 0.00 | 0.00 | 81 | 1014.8 |
| 20260507080105 | 0 | 301 | 1.6 | 4.8 | 0.00 | 0.00 | 0.00 | 80 | 1014.8 |
| 20260507075549 | 0 | 281 | 1.6 | 4.8 | 0.00 | 0.00 | 0.00 | 80 | 1014.8 |
| 20260507075048 | 0 | 285 | 1.6 | 4.8 | 0.00 | 0.00 | 0.00 | 79 | 1014.8 |
| 20260507074549 | 0 | 283 | 0.0 | 3.2 | 0.00 | 0.00 | 0.00 | 78 | 1014.8 |
| 20260507074047 | 0 | 263 | 0.0 | 3.2 | 0.00 | 0.00 | 0.00 | 78 | 1014.8 |
| 20260507073547 | 0 | 259 | 0.0 | 3.2 | 0.00 | 0.00 | 0.00 | 78 | 1014.8 |
| 20260507073051 | 0 | 270 | 0.0 | 6.4 | 0.00 | 0.00 | 0.00 | 79 | 1014.9 |
| 20260507072545 | 0 | 266 | 3.2 | 6.4 | 0.00 | 0.00 | 0.00 | 79 | 1015.1 |
| 20260507072045 | 0 | 274 | 0.0 | 3.2 | 0.00 | 0.00 | 0.00 | 78 | 1015.1 |
| 20260507071545 | 0 | 273 | 0.0 | 3.2 | 0.00 | 0.00 | 0.00 | 77 | 1015.1 |
| 20260507071044 | 0 | 273 | 1.6 | 3.2 | 0.00 | 0.00 | 0.00 | 77 | 1015.2 |
| 20260507070544 | 0 | 266 | 1.6 | 3.2 | 0.00 | 0.00 | 0.00 | 78 | 1015.1 |
| 20260507070044 | 0 | 266 | 1.6 | 3.2 | 0.00 | 0.00 | 0.00 | 78 | 1015.2 |
| 20260507065544 | 0 | 249 | 0.0 | 1.6 | 0.00 | 0.00 | 0.00 | 78 | 1015.1 |
| 20260507065040 | 0 | 282 | 0.0 | 1.6 | 0.00 | 0.00 | 0.00 | 79 | 1015.1 |
| 20260507064540 | 0 | 283 | 0.0 | 1.6 | 0.00 | 0.00 | 0.00 | 80 | 1015.1 |
| 20260507064039 | 0 | 285 | 0.0 | 1.6 | 0.00 | 0.00 | 0.00 | 81 | 1015.2 |
| 20260507063539 | 0 | 277 | 0.0 | 1.6 | 0.00 | 0.00 | 0.00 | 80 | 1015.3 |
| 20260507063037 | 0 | 277 | 0.0 | 1.6 | 0.00 | 0.00 | 0.00 | 79 | 1015.3 |
| 20260507062536 | 1 | 281 | 0.0 | 1.6 | 0.00 | 0.00 | 0.00 | 80 | 1015.3 |
| 20260507062035 | 1 | 277 | 0.0 | 1.6 | 0.00 | 0.00 | 0.00 | 80 | 1015.4 |
| 20260507061535 | 1 | 276 | 0.0 | 1.6 | 0.00 | 0.00 | 0.00 | 81 | 1015.5 |
| 20260507061034 | 1 | 276 | 0.0 | 0.0 | 0.00 | 0.00 | 0.00 | 80 | 1015.5 |
| 20260507060533 | 1 | 276 | 0.0 | 1.6 | 0.00 | 0.00 | 0.00 | 78 | 1015.5 |
| 20260507060038 | 1 | 276 | 0.0 | 1.6 | 0.00 | 0.00 | 0.00 | 78 | 1015.6 |
| 20260507055532 | 1 | 283 | 0.0 | 1.6 | 0.00 | 0.00 | 0.00 | 78 | 1015.7 |
| 20260507055033 | 1 | 285 | 0.0 | 1.6 | 0.00 | 0.00 | 0.00 | 78 | 1015.6 |
| 20260507054537 | 1 | 285 | 0.0 | 1.6 | 0.00 | 0.00 | 0.00 | 77 | 1015.6 |
| 20260507054030 | 1 | 285 | 0.0 | 1.6 | 0.00 | 0.00 | 0.00 | 77 | 1015.7 |
| 20260507053529 | 1 | 290 | 0.0 | 1.6 | 0.00 | 0.00 | 0.00 | 77 | 1015.7 |
| 20260507053028 | 1 | 333 | 0.0 | 0.0 | 0.00 | 0.00 | 0.00 | 75 | 1015.8 |
| 20260507052527 | 1 | 333 | 0.0 | 0.0 | 0.00 | 0.00 | 0.00 | 73 | 1015.8 |
| 20260507052026 | 1 | 333 | 0.0 | 0.0 | 0.00 | 0.00 | 0.00 | 70 | 1015.8 |
| 20260507051524 | 2 | 333 | 0.0 | 0.0 | 0.00 | 0.00 | 0.00 | 68 | 1015.9 |
| 20260507051024 | 2 | 333 | 0.0 | 1.6 | 0.00 | 0.00 | 0.00 | 68 | 1015.9 |
| 20260507050522 | 2 | 333 | 0.0 | 3.2 | 0.00 | 0.00 | 0.00 | 68 | 1015.9 |
| 20260507050026 | 2 | 311 | 0.0 | 1.6 | 0.00 | 0.00 | 0.00 | 68 | 1015.9 |
| 20260507045521 | 2 | 311 | 0.0 | 1.6 | 0.00 | 0.00 | 0.00 | 67 | 1016.0 |
| 20260507045020 | 2 | 318 | 0.0 | 1.6 | 0.00 | 0.00 | 0.00 | 67 | 1015.9 |
| 20260507044521 | 2 | 295 | 0.0 | 1.6 | 0.00 | 0.00 | 0.00 | 66 | 1016.0 |
| 20260507044020 | 2 | 295 | 0.0 | 1.6 | 0.00 | 0.00 | 0.00 | 66 | 1016.0 |
| 20260507043520 | 2 | 299 | 0.0 | 1.6 | 0.00 | 0.00 | 0.00 | 66 | 1016.1 |
| 20260507043023 | 2 | 288 | 0.0 | 0.0 | 0.00 | 0.00 | 0.00 | 66 | 1016.0 |
| 20260507042519 | 2 | 288 | 0.0 | 1.6 | 0.00 | 0.00 | 0.00 | 66 | 1016.0 |
| 20260507042019 | 2 | 288 | 0.0 | 1.6 | 0.00 | 0.00 | 0.00 | 66 | 1016.1 |
| 20260507041519 | 2 | 288 | 0.0 | 1.6 | 0.00 | 0.00 | 0.00 | 66 | 1016.1 |
| 20260507041018 | 2 | 315 | 0.0 | 1.6 | 0.00 | 0.00 | 0.00 | 66 | 1016.1 |
| 20260507040519 | 2 | 315 | 0.0 | 1.6 | 0.00 | 0.00 | 0.00 | 65 | 1016.2 |
| 20260507040018 | 3 | 9 | 0.0 | 0.0 | 0.00 | 0.00 | 0.00 | 64 | 1016.2 |
| 20260507035518 | 3 | 10 | 0.0 | 0.0 | 0.00 | 0.00 | 0.00 | 63 | 1016.3 |
| 20260507035018 | 3 | 10 | 0.0 | 0.0 | 0.00 | 0.00 | 0.00 | 62 | 1016.3 |
| 20260507034520 | 3 | 10 | 0.0 | 1.6 | 0.00 | 0.00 | 0.00 | 61 | 1016.2 |
| 20260507034017 | 3 | 10 | 0.0 | 1.6 | 0.00 | 0.00 | 0.00 | 61 | 1016.2 |
| 20260507033517 | 3 | 11 | 0.0 | 1.6 | 0.00 | 0.00 | 0.00 | 60 | 1016.2 |
| 20260507033016 | 3 | 315 | 0.0 | 1.6 | 0.00 | 0.00 | 0.00 | 60 | 1016.3 |
| 20260507032516 | 3 | 330 | 0.0 | 1.6 | 0.00 | 0.00 | 0.00 | 60 | 1016.3 |
| 20260507032015 | 3 | 312 | 0.0 | 1.6 | 0.00 | 0.00 | 0.00 | 60 | 1016.3 |
| 20260507031515 | 3 | 307 | 0.0 | 1.6 | 0.00 | 0.00 | 0.00 | 60 | 1016.3 |
| 20260507031016 | 3 | 308 | 0.0 | 1.6 | 0.00 | 0.00 | 0.00 | 60 | 1016.3 |
| 20260507030516 | 3 | 316 | 0.0 | 1.6 | 0.00 | 0.00 | 0.00 | 60 | 1016.4 |
| 20260507030019 | 3 | 339 | 0.0 | 1.6 | 0.00 | 0.00 | 0.00 | 60 | 1016.3 |
| 20260507025515 | 3 | 339 | 0.0 | 0.0 | 0.00 | 0.00 | 0.00 | 61 | 1016.4 |
| 20260507025015 | 3 | 311 | 0.0 | 0.0 | 0.00 | 0.00 | 0.00 | 61 | 1016.4 |
| 20260507024515 | 3 | 311 | 0.0 | 0.0 | 0.00 | 0.00 | 0.00 | 61 | 1016.4 |
| 20260507024017 | 3 | 311 | 0.0 | 0.0 | 0.00 | 0.00 | 0.00 | 60 | 1016.3 |
| 20260507023516 | 3 | 311 | 0.0 | 0.0 | 0.00 | 0.00 | 0.00 | 60 | 1016.4 |
| 20260507023014 | 3 | 311 | 0.0 | 0.0 | 0.00 | 0.00 | 0.00 | 59 | 1016.4 |
| 20260507022514 | 3 | 311 | 0.0 | 1.6 | 0.00 | 0.00 | 0.00 | 57 | 1016.4 |
| 20260507022017 | 3 | 311 | 0.0 | 1.6 | 0.00 | 0.00 | 0.00 | 57 | 1016.4 |
| 20260507021514 | 3 | 307 | 0.0 | 1.6 | 0.00 | 0.00 | 0.00 | 56 | 1016.5 |
| 20260507021013 | 4 | 316 | 0.0 | 3.2 | 0.00 | 0.00 | 0.00 | 56 | 1016.4 |
| 20260507020514 | 4 | 319 | 0.0 | 3.2 | 0.00 | 0.00 | 0.00 | 55 | 1016.3 |
| 20260507020014 | 4 | 313 | 0.0 | 3.2 | 0.00 | 0.00 | 0.00 | 55 | 1016.3 |
| 20260507015513 | 4 | 328 | 0.0 | 6.4 | 0.00 | 0.00 | 0.00 | 55 | 1016.3 |
| 20260507015013 | 4 | 6 | 1.6 | 6.4 | 0.00 | 0.00 | 0.00 | 55 | 1016.3 |
| 20260507014519 | 4 | 333 | 1.6 | 8.0 | 0.00 | 0.00 | 0.00 | 55 | 1016.3 |
| 20260507014013 | 4 | 354 | 1.6 | 9.7 | 0.00 | 0.00 | 0.00 | 55 | 1016.4 |
| 20260507013512 | 5 | 311 | 1.6 | 8.0 | 0.00 | 0.00 | 0.00 | 54 | 1016.3 |
| 20260507013028 | 5 | 278 | 3.2 | 9.7 | 0.00 | 0.00 | 0.00 | 54 | 1016.4 |
| 20260507012512 | 5 | 297 | 1.6 | 9.7 | 0.00 | 0.00 | 0.00 | 54 | 1016.4 |
| 20260507012012 | 5 | 304 | 0.0 | 8.0 | 0.00 | 0.00 | 0.00 | 54 | 1016.3 |
| 20260507011514 | 5 | 309 | 1.6 | 8.0 | 0.00 | 0.00 | 0.00 | 54 | 1016.3 |
| 20260507011011 | 5 | 309 | 0.0 | 4.8 | 0.00 | 0.00 | 0.00 | 53 | 1016.3 |
| 20260507010512 | 5 | 26 | 0.0 | 4.8 | 0.00 | 0.00 | 0.00 | 52 | 1016.4 |
| 20260507010018 | 5 | 321 | 0.0 | 9.7 | 0.00 | 0.00 | 0.00 | 52 | 1016.4 |
| 20260507005512 | 5 | 343 | 1.6 | 9.7 | 0.00 | 0.00 | 0.00 | 51 | 1016.3 |
| 20260507005011 | 5 | 47 | 1.6 | 11.3 | 0.00 | 0.00 | 0.00 | 51 | 1016.4 |
| 20260507004512 | 5 | 23 | 3.2 | 11.3 | 0.00 | 0.00 | 0.00 | 51 | 1016.5 |
| 20260507004011 | 5 | 323 | 3.2 | 11.3 | 0.00 | 0.00 | 0.00 | 52 | 1016.5 |
| 20260507003511 | 5 | 335 | 1.6 | 12.9 | 0.00 | 0.00 | 0.00 | 52 | 1016.5 |
| 20260507003010 | 5 | 336 | 4.8 | 12.9 | 0.00 | 0.00 | 0.00 | 50 | 1016.4 |
| 20260507002515 | 5 | 9 | 4.8 | 12.9 | 0.00 | 0.00 | 0.00 | 50 | 1016.5 |
| 20260507002009 | 5 | 12 | 4.8 | 12.9 | 0.00 | 0.00 | 0.00 | 50 | 1016.5 |
| 20260507001510 | 6 | 334 | 3.2 | 17.7 | 0.00 | 0.00 | 0.00 | 51 | 1016.6 |
| 20260507001010 | 6 | 275 | 8.0 | 17.7 | 0.00 | 0.00 | 0.00 | 50 | 1016.6 |
| 20260507000509 | 6 | 340 | 4.8 | 14.5 | 0.00 | 0.00 | 0.00 | 49 | 1016.6 |
| 20260507000008 | 6 | 259 | 4.8 | 14.5 | 0.00 | 0.00 | 0.00 | 49 | 1016.7 |
| 20260506235508 | 6 | 322 | 4.8 | 14.5 | 0.00 | 0.00 | 0.00 | 50 | 1016.7 |
| 20260506235007 | 5 | 332 | 4.8 | 17.7 | 0.00 | 0.00 | 0.00 | 51 | 1016.8 |
| 20260506234507 | 5 | 316 | 1.6 | 17.7 | 0.00 | 0.00 | 0.00 | 51 | 1016.8 |
| 20260506234011 | 5 | 337 | 6.4 | 19.3 | 0.00 | 0.00 | 0.00 | 50 | 1016.8 |
| 20260506233507 | 5 | 324 | 9.7 | 20.9 | 0.00 | 0.00 | 0.00 | 52 | 1016.9 |
| 20260506233008 | 5 | 295 | 14.5 | 27.4 | 0.00 | 0.00 | 0.00 | 51 | 1016.9 |
| 20260506232505 | 5 | 307 | 9.7 | 29.0 | 0.00 | 0.00 | 0.00 | 52 | 1017.0 |
| 20260506232005 | 5 | 293 | 17.7 | 29.0 | 0.00 | 0.00 | 0.00 | 51 | 1016.9 |
| 20260506231505 | 5 | 285 | 19.3 | 29.0 | 0.00 | 0.00 | 0.00 | 52 | 1017.0 |
| 20260506231006 | 5 | 264 | 12.9 | 27.4 | 0.00 | 0.00 | 0.00 | 52 | 1017.0 |
| 20260506230507 | 5 | 283 | 14.5 | 27.4 | 0.00 | 0.00 | 0.00 | 51 | 1016.9 |
| 20260506230009 | 5 | 290 | 16.1 | 27.4 | 0.00 | 0.00 | 0.00 | 51 | 1017.0 |
| 20260506225506 | 5 | 287 | 11.3 | 24.1 | 0.00 | 0.00 | 0.00 | 52 | 1017.0 |
| 20260506225006 | 6 | 242 | 8.0 | 24.1 | 0.00 | 0.00 | 0.00 | 51 | 1017.1 |
| 20260506224505 | 6 | 281 | 14.5 | 29.0 | 0.00 | 0.00 | 0.00 | 52 | 1017.0 |
| 20260506224004 | 6 | 290 | 16.1 | 29.0 | 0.00 | 0.00 | 0.00 | 50 | 1016.9 |
| 20260506223504 | 6 | 287 | 6.4 | 19.3 | 0.00 | 0.00 | 0.00 | 50 | 1017.0 |
| 20260506223004 | 6 | 359 | 9.7 | 19.3 | 0.00 | 0.00 | 0.00 | 50 | 1017.0 |
| 20260506222504 | 6 | 269 | 9.7 | 20.9 | 0.00 | 0.00 | 0.00 | 50 | 1017.0 |
| 20260506222004 | 6 | 291 | 8.0 | 22.5 | 0.00 | 0.00 | 0.00 | 50 | 1017.0 |
| 20260506221504 | 6 | 225 | 12.9 | 27.4 | 0.00 | 0.00 | 0.00 | 50 | 1016.9 |
| 20260506221003 | 6 | 295 | 9.7 | 27.4 | 0.00 | 0.00 | 0.00 | 50 | 1016.9 |
| 20260506220504 | 6 | 311 | 9.7 | 27.4 | 0.00 | 0.00 | 0.00 | 51 | 1016.9 |
| 20260506220003 | 6 | 278 | 8.0 | 25.7 | 0.00 | 0.00 | 0.00 | 50 | 1016.8 |
| 20260506215504 | 6 | 318 | 14.5 | 25.7 | 0.00 | 0.00 | 0.00 | 50 | 1016.9 |
| 20260506215003 | 6 | 281 | 8.0 | 19.3 | 0.00 | 0.00 | 0.00 | 50 | 1017.0 |
| 20260506214507 | 6 | 311 | 6.4 | 20.9 | 0.00 | 0.00 | 0.00 | 50 | 1017.1 |
| 20260506214003 | 6 | 283 | 12.9 | 20.9 | 0.00 | 0.00 | 0.00 | 49 | 1017.0 |
| 20260506213502 | 6 | 336 | 4.8 | 17.7 | 0.00 | 0.00 | 0.00 | 51 | 1017.1 |
| 20260506213002 | 6 | 281 | 8.0 | 17.7 | 0.00 | 0.00 | 0.00 | 50 | 1017.1 |
| 20260506212503 | 6 | 294 | 3.2 | 17.7 | 0.00 | 0.00 | 0.00 | 50 | 1017.1 |
| 20260506212001 | 6 | 292 | 4.8 | 17.7 | 0.00 | 0.00 | 0.00 | 50 | 1017.1 |
| 20260506211501 | 5 | 351 | 8.0 | 20.9 | 0.00 | 0.00 | 0.00 | 50 | 1017.2 |
| 20260506211002 | 5 | 336 | 6.4 | 20.9 | 0.00 | 0.00 | 0.00 | 51 | 1017.3 |
| 20260506210502 | 5 | 285 | 11.3 | 20.9 | 0.00 | 0.00 | 0.00 | 51 | 1017.3 |
| 20260506210003 | 5 | 283 | 9.7 | 20.9 | 0.00 | 0.00 | 0.00 | 51 | 1017.3 |
| 20260506205601 | 5 | 266 | 9.7 | 25.7 | 0.00 | 0.00 | 0.00 | 51 | 1017.4 |
| 20260506205100 | 5 | 316 | 14.5 | 25.7 | 0.00 | 0.00 | 0.00 | 51 | 1017.3 |
| 20260506204602 | 5 | 35 | 4.8 | 19.3 | 0.00 | 0.00 | 0.00 | 51 | 1017.4 |
| 20260506204103 | 5 | 278 | 9.7 | 32.2 | 0.00 | 0.00 | 0.00 | 50 | 1017.5 |
| 20260506203600 | 5 | 307 | 17.7 | 32.2 | 0.00 | 0.00 | 0.00 | 50 | 1017.5 |
| 20260506203100 | 5 | 333 | 8.0 | 16.1 | 0.00 | 0.00 | 0.00 | 52 | 1017.5 |
| 20260506202559 | 5 | 248 | 6.4 | 24.1 | 0.00 | 0.00 | 0.00 | 51 | 1017.5 |
| 20260506202100 | 5 | 284 | 11.3 | 27.4 | 0.00 | 0.00 | 0.00 | 50 | 1017.6 |
| 20260506201559 | 6 | 283 | 14.5 | 27.4 | 0.00 | 0.00 | 0.00 | 51 | 1017.5 |
| 20260506201058 | 6 | 332 | 1.6 | 20.9 | 0.00 | 0.00 | 0.00 | 51 | 1017.5 |
| 20260506200558 | 5 | 332 | 6.4 | 30.6 | 0.00 | 0.00 | 0.00 | 52 | 1017.6 |
| 20260506200058 | 5 | 269 | 20.9 | 30.6 | 0.00 | 0.00 | 0.00 | 50 | 1017.6 |
| 20260506195558 | 6 | 315 | 8.0 | 22.5 | 0.00 | 0.00 | 0.00 | 49 | 1017.6 |
| 20260506195102 | 6 | 360 | 6.4 | 22.5 | 0.00 | 0.00 | 0.00 | 51 | 1017.7 |
| 20260506194601 | 6 | 262 | 3.2 | 22.5 | 0.00 | 0.00 | 0.00 | 53 | 1017.6 |
| 20260506194056 | 5 | 336 | 4.8 | 25.7 | 0.00 | 0.00 | 0.00 | 52 | 1017.6 |
| 20260506193554 | 5 | 277 | 11.3 | 22.5 | 0.00 | 0.00 | 0.00 | 52 | 1017.4 |
| 20260506193054 | 5 | 347 | 9.7 | 19.3 | 0.00 | 0.00 | 0.00 | 52 | 1017.8 |
| 20260506192553 | 5 | 15 | 6.4 | 24.1 | 0.00 | 0.00 | 0.00 | 54 | 1017.7 |
| 20260506192054 | 5 | 273 | 11.3 | 25.7 | 0.00 | 0.00 | 0.00 | 54 | 1017.7 |
| 20260506191552 | 5 | 260 | 12.9 | 30.6 | 0.00 | 0.00 | 0.00 | 52 | 1017.7 |
| 20260506191051 | 5 | 330 | 12.9 | 30.6 | 0.00 | 0.00 | 0.00 | 53 | 1017.7 |
| 20260506190550 | 5 | 318 | 3.2 | 22.5 | 0.00 | 0.00 | 0.00 | 54 | 1017.8 |
| 20260506190051 | 5 | 270 | 12.9 | 22.5 | 0.00 | 0.00 | 0.00 | 54 | 1017.8 |
| 20260506185550 | 4 | 274 | 4.8 | 16.1 | 0.00 | 0.00 | 0.00 | 53 | 1017.8 |
| 20260506185052 | 5 | 320 | 8.0 | 16.1 | 0.00 | 0.00 | 0.00 | 53 | 1017.8 |
| 20260506184553 | 5 | 314 | 8.0 | 16.1 | 0.00 | 0.00 | 0.00 | 53 | 1017.8 |
| 20260506184049 | 4 | 50 | 1.6 | 19.3 | 0.00 | 0.00 | 0.00 | 55 | 1017.9 |
| 20260506183549 | 4 | 294 | 1.6 | 20.9 | 0.00 | 0.00 | 0.00 | 55 | 1017.9 |
| 20260506183055 | 4 | 311 | 12.9 | 24.1 | 0.00 | 0.00 | 0.00 | 55 | 1017.9 |
| 20260506182548 | 4 | 307 | 9.7 | 24.1 | 0.00 | 0.00 | 0.00 | 55 | 1018.0 |
| 20260506182045 | 4 | 6 | 8.0 | 22.5 | 0.00 | 0.00 | 0.00 | 55 | 1018.0 |
| 20260506181611 | 4 | 298 | 9.7 | 20.9 | 0.00 | 0.00 | 0.00 | 55 | 1018.1 |
| 20260506181044 | 3 | 295 | 3.2 | 20.9 | 0.00 | 0.00 | 0.00 | 58 | 1018.1 |
| 20260506180544 | 4 | 312 | 12.9 | 20.9 | 0.00 | 0.00 | 0.00 | 55 | 1018.1 |
| 20260506180044 | 4 | 238 | 9.7 | 22.5 | 0.00 | 0.00 | 0.00 | 57 | 1018.1 |
| 20260506175544 | 3 | 342 | 9.7 | 25.7 | 0.00 | 0.00 | 0.00 | 56 | 1018.2 |
| 20260506175046 | 3 | 298 | 14.5 | 25.7 | 0.00 | 0.00 | 0.00 | 55 | 1018.1 |
| 20260506174543 | 3 | 340 | 6.4 | 14.5 | 0.00 | 0.00 | 0.00 | 56 | 1018.2 |
| 20260506174042 | 3 | 320 | 6.4 | 22.5 | 0.00 | 0.00 | 0.00 | 56 | 1018.2 |
| 20260506173543 | 3 | 290 | 12.9 | 22.5 | 0.00 | 0.00 | 0.00 | 57 | 1018.2 |
| 20260506173055 | 3 | 267 | 9.7 | 20.9 | 0.00 | 0.00 | 0.00 | 57 | 1018.2 |
| 20260506172542 | 3 | 301 | 6.4 | 20.9 | 0.00 | 0.00 | 0.00 | 58 | 1018.3 |
| 20260506172042 | 3 | 290 | 6.4 | 20.9 | 0.00 | 0.00 | 0.00 | 58 | 1018.3 |
| 20260506171540 | 3 | 323 | 8.0 | 20.9 | 0.00 | 0.00 | 0.00 | 58 | 1018.4 |
| 20260506171041 | 3 | 330 | 6.4 | 16.1 | 0.00 | 0.00 | 0.00 | 57 | 1018.4 |
| 20260506170540 | 3 | 311 | 6.4 | 19.3 | 0.00 | 0.00 | 0.00 | 57 | 1018.5 |
| 20260506170040 | 3 | 290 | 8.0 | 19.3 | 0.00 | 0.00 | 0.00 | 57 | 1018.5 |
| 20260506165537 | 3 | 9 | 3.2 | 12.9 | 0.00 | 0.00 | 0.00 | 58 | 1018.5 |
| 20260506165037 | 3 | 27 | 4.8 | 16.1 | 0.00 | 0.00 | 0.00 | 58 | 1018.5 |
| 20260506164539 | 3 | 328 | 6.4 | 16.1 | 0.00 | 0.00 | 0.00 | 58 | 1018.5 |
| 20260506164037 | 3 | 8 | 6.4 | 19.3 | 0.00 | 0.00 | 0.00 | 57 | 1018.6 |
| 20260506163537 | 3 | 285 | 6.4 | 22.5 | 0.00 | 0.00 | 0.00 | 58 | 1018.5 |
| 20260506163038 | 3 | 335 | 8.0 | 22.5 | 0.00 | 0.00 | 0.00 | 57 | 1018.6 |
| 20260506162534 | 3 | 44 | 4.8 | 16.1 | 0.00 | 0.00 | 0.00 | 57 | 1018.6 |
| 20260506162034 | 3 | 329 | 4.8 | 16.1 | 0.00 | 0.00 | 0.00 | 59 | 1018.6 |
| 20260506161532 | 3 | 255 | 6.4 | 19.3 | 0.00 | 0.00 | 0.00 | 58 | 1018.5 |
| 20260506161032 | 3 | 328 | 6.4 | 19.3 | 0.00 | 0.00 | 0.00 | 58 | 1018.5 |
| 20260506160532 | 3 | 278 | 6.4 | 16.1 | 0.00 | 0.00 | 0.00 | 59 | 1018.6 |
| 20260506160032 | 3 | 340 | 8.0 | 16.1 | 0.00 | 0.00 | 0.00 | 58 | 1018.6 |
| 20260506155532 | 3 | 63 | 4.8 | 14.5 | 0.00 | 0.00 | 0.00 | 58 | 1018.5 |
| 20260506155030 | 3 | 314 | 1.6 | 9.7 | 0.00 | 0.00 | 0.00 | 59 | 1018.6 |
| 20260506154529 | 3 | 8 | 3.2 | 17.7 | 0.00 | 0.00 | 0.00 | 59 | 1018.5 |
| 20260506154028 | 2 | 18 | 6.4 | 17.7 | 0.00 | 0.00 | 0.00 | 59 | 1018.5 |
| 20260506153527 | 2 | 16 | 4.8 | 16.1 | 0.00 | 0.00 | 0.00 | 60 | 1018.5 |
| 20260506153025 | 2 | 357 | 4.8 | 17.7 | 0.00 | 0.00 | 0.00 | 61 | 1018.5 |
| 20260506152526 | 2 | 325 | 8.0 | 17.7 | 0.00 | 0.00 | 0.00 | 60 | 1018.5 |
| 20260506152024 | 2 | 353 | 4.8 | 24.1 | 0.00 | 0.00 | 0.00 | 61 | 1018.5 |
| 20260506151524 | 2 | 321 | 9.7 | 24.1 | 0.00 | 0.00 | 0.00 | 60 | 1018.5 |
| 20260506151023 | 2 | 340 | 6.4 | 17.7 | 0.00 | 0.00 | 0.00 | 60 | 1018.4 |
| 20260506150523 | 2 | 311 | 4.8 | 17.7 | 0.00 | 0.00 | 0.00 | 61 | 1018.4 |
| 20260506150022 | 2 | 341 | 8.0 | 17.7 | 0.00 | 0.00 | 0.00 | 61 | 1018.5 |
| 20260506145521 | 2 | 311 | 4.8 | 12.9 | 0.00 | 0.00 | 0.00 | 62 | 1018.5 |
| 20260506145021 | 2 | 29 | 6.4 | 14.5 | 0.00 | 0.00 | 0.00 | 61 | 1018.4 |
| 20260506144522 | 2 | 330 | 4.8 | 14.5 | 0.00 | 0.00 | 0.00 | 62 | 1018.4 |
| 20260506144021 | 2 | 303 | 4.8 | 14.5 | 0.00 | 0.00 | 0.00 | 62 | 1018.5 |
| 20260506143520 | 2 | 26 | 0.0 | 14.5 | 0.00 | 0.00 | 0.00 | 63 | 1018.5 |
| 20260506143022 | 2 | 349 | 4.8 | 14.5 | 0.00 | 0.00 | 0.00 | 61 | 1018.5 |
| 20260506142519 | 2 | 352 | 3.2 | 17.7 | 0.00 | 0.00 | 0.00 | 62 | 1018.5 |
| 20260506142020 | 2 | 347 | 6.4 | 12.9 | 0.00 | 0.00 | 0.00 | 61 | 1018.5 |
| 20260506141519 | 2 | 47 | 1.6 | 12.9 | 0.00 | 0.00 | 0.00 | 63 | 1018.4 |
| 20260506141019 | 1 | 16 | 1.6 | 19.3 | 0.00 | 0.00 | 0.00 | 62 | 1018.5 |
| 20260506140518 | 1 | 41 | 6.4 | 19.3 | 0.00 | 0.00 | 0.00 | 62 | 1018.5 |
| 20260506140018 | 1 | 307 | 3.2 | 12.9 | 0.00 | 0.00 | 0.00 | 63 | 1018.4 |
| 20260506135516 | 1 | 339 | 4.8 | 12.9 | 0.00 | 0.00 | 0.00 | 62 | 1018.4 |
| 20260506135015 | 2 | 352 | 6.4 | 12.9 | 0.00 | 0.00 | 0.00 | 62 | 1018.3 |
| 20260506134514 | 2 | 20 | 1.6 | 11.3 | 0.00 | 0.00 | 0.00 | 63 | 1018.3 |
| 20260506134019 | 1 | 18 | 3.2 | 11.3 | 0.00 | 0.00 | 0.00 | 63 | 1018.3 |
| 20260506133513 | 1 | 57 | 1.6 | 11.3 | 0.00 | 0.00 | 0.00 | 63 | 1018.2 |
| 20260506133012 | 1 | 345 | 4.8 | 9.7 | 0.00 | 0.00 | 0.00 | 63 | 1018.2 |
| 20260506132513 | 1 | 15 | 4.8 | 9.7 | 0.00 | 0.00 | 0.00 | 64 | 1018.0 |
| 20260506132010 | 1 | 318 | 3.2 | 9.7 | 0.00 | 0.00 | 0.00 | 64 | 1018.0 |
| 20260506131509 | 1 | 335 | 4.8 | 9.7 | 0.00 | 0.00 | 0.00 | 64 | 1017.9 |
| 20260506131008 | 1 | 328 | 4.8 | 9.7 | 0.00 | 0.00 | 0.00 | 64 | 1017.9 |
| 20260506130507 | 1 | 6 | 1.6 | 12.9 | 0.00 | 0.00 | 0.00 | 66 | 1017.8 |
| 20260506130000 | 1 | 360 | 4.8 | 14.5 | 0.00 | 0.00 | 0.00 | 65 | 1017.7 |
| 20260506125559 | 1 | 340 | 6.4 | 14.5 | 0.00 | 0.00 | 0.00 | 65 | 1017.7 |
| 20260506125059 | 1 | 297 | 3.2 | 11.3 | 0.00 | 0.00 | 0.00 | 66 | 1017.6 |
| 20260506124601 | 1 | 341 | 3.2 | 12.9 | 0.00 | 0.00 | 0.00 | 66 | 1017.6 |
| 20260506124057 | 1 | 320 | 6.4 | 12.9 | 0.00 | 0.00 | 0.00 | 67 | 1017.4 |
| 20260506123558 | 1 | 329 | 1.6 | 12.9 | 0.00 | 0.00 | 0.00 | 68 | 1017.4 |
| 20260506122507 | 1 | 302 | 0.0 | 12.9 | 0.00 | 0.00 | 0.00 | 69 | 1017.4 |
| 20260506122044 | 1 | 4 | 1.6 | 12.9 | 0.00 | 0.00 | 0.00 | 69 | 1017.3 |
| 20260506121534 | 1 | 6 | 0.0 | 9.7 | 0.00 | 0.00 | 0.00 | 70 | 1017.2 |
| 20260506121039 | 1 | 9 | 1.6 | 9.7 | 0.00 | 0.00 | 0.00 | 70 | 1017.2 |
| 20260506120535 | 1 | 321 | 3.2 | 9.7 | 0.00 | 0.00 | 0.00 | 70 | 1017.2 |
| 20260506120039 | 0 | 352 | 1.6 | 9.7 | 0.00 | 0.00 | 0.00 | 71 | 1017.1 |
| 20260506115534 | 0 | 11 | 1.6 | 9.7 | 0.00 | 0.00 | 0.00 | 71 | 1017.0 |
| 20260506115030 | 0 | 341 | 1.6 | 6.4 | 0.00 | 0.00 | 0.00 | 72 | 1017.0 |
| 20260506114531 | 0 | 353 | 0.0 | 3.2 | 0.00 | 0.00 | 0.00 | 73 | 1017.0 |
| 20260506114030 | 0 | 320 | 0.0 | 6.4 | 0.00 | 0.00 | 0.00 | 73 | 1016.9 |